DELTA 1 DEB, 21320

Orbit data source: Space-Track

DELTA 1 DEB, 21320 is space debris in SSO originally from a launch on Thu, 12 Jun 1975 UTC launched from the Air Force Western Test Range (AFWTR). Debris objects in space refer to the collection of defunct objects orbiting the Earth. Examples of debris include non-operational satellites, rocket bodies, and fragments generated from explosions, collisions, or faulty payload assembly.

Loading next visibility...
Identifier
21320, 1975-052AN
Orbit
SSO
Country
Flag of USUS
Related business
Manufacturer
Unknown
Mission
Spacecraft
Bus & Motor
Unknown
Mass
Unknown
Launch date (UTC)
1975-06-12 (51 years ago)
Launch vehicle
Unknown
Launch site
Air Force Western Test Range (AFWTR)
Object type
Payload
Rocket body
Debris
Shape & HBR
Unknown shape, 0.1 m
Radar Cross Section
Small (<0.1 m²)

Expand to show TLE details & history
Last TLE update: 14 hours ago

TLE from 14 hours ago
0 DELTA 1 DEB
1 21320U 75052AN  25349.64413182  .00000201  00000-0  24940-3 0  9994
2 21320  99.5287 224.5155 0127173 222.6560 162.2711 13.73669065730363
Epoch: 2025-12-15T15:27Z
TLE epoch observation values (Epoch: 2025-12-15T15:27:32.989Z)
Latitude
25.01841°
Longitude
-96.38174°
Altitude
1,078.71 km
Speed
7.27 km/s
True Right ascension
14h 40m 10s
True Declination
24° 53' 33"
Sunlit
Object was in daylight at epoch
Visualization orbit readout
Latitude
Unknown
Longitude
Unknown
Altitude
Unknown
Speed
Unknown
Apparent Right ascension
Unknown
Apparent Declination
Unknown
Sunlit
N/A
Visualization observer readout
Local Sidereal Time
04:00:15
Azimuth
Unknown
Elevation
Unknown
Doppler factor
Unknown
Orbital elements
Apogee altitude
1,077.311 km
Perigee altitude
890.066 km
Semi-major axis
7,361.825 km
Eccentricity
0.01272
Inclination
99.5287°
RAAN
224.5155°
Arg. of periapsis
222.656°
True anomaly
162.70824°
Mean anomaly
162.2711°
Eccentric anomaly
162.49033°
Mean motion
3.43609 °/min
Orbital period
104.77 mins
BSTAR
0.0002494
Loading maneuver chart data...
Computing Atmospheric mass density...
Loading historical data...
Loading historical data...
Loading historical data...
Loading historical data...
Loading historical data...
Loading historical data...
Loading historical data...

Documentation

Showing up to 5 results
|